Weather History for Emporia, VA

Change the Weather History Date:

Sunday, November 20, 2011

  Actual Average Record
Temperature  
Mean Temperature 55 °F -  
Max Temperature 71 °F 58 °F 75 °F (1991)
Min Temperature 39 °F 36 °F 24 °F (1990)
Degree Days  
Heating Degree Days 10    
Growing Degree Days 5 (Base 50)    
Moisture  
Dew Point 50 °F    
Average Humidity 82    
Maximum Humidity 100    
Minimum Humidity 57    
Precipitation  
Precipitation 0.00 in - - ()
Sea Level Pressure  
Sea Level Pressure 30.28 in    
Wind  
Wind Speed 2 mph (South)    
Max Wind Speed 13 mph    
Max Gust Speed 20 mph    
Visibility 8 miles    
Events Fog    
Averages and records for this station are not official NWS values.
T = Trace of Precipitation, MM = Missing Value Source: NWS Daily Summary

Daily Weather History Graph

Daily Weather History Graph

Search for Another Location

Airport:

Trip Planner

Search our weather history database for the weather conditions in past years. The results will help you decide how hot, cold, wet, or windy it might be!

Date:

Astronomy

Nov. 20, 2011 Rise Set
Actual Time 6:52 AM EST 4:58 PM EST
Civil Twilight 6:24 AM EST 5:25 PM EST
Nautical Twilight 5:53 AM EST 5:57 PM EST
Astronomical Twilight 5:22 AM EST 6:28 PM EST
Moon 1:26 AM EST (11/20) 1:39 PM EST (11/20)
Length of Visible Light 11h 01m
Length of Day
10h 05m
Waning Crescent, 27% of the Moon is Illuminated
Nov 20
Waning Crescent
Nov 25
New
Dec 2
First Quarter
Dec 10
Full
Dec 17
Last Quarter

Hourly Weather History & Observations

Time (EST) Temp. Windchill Dew Point Humidity Pressure Visibility Wind Dir Wind Speed Gust Speed Precip Events Conditions
12:15 AM 48.2 °F - 46.4 °F 93% 30.33 in 10.0 mi Calm Calm - N/A   Unknown
12:35 AM 46.4 °F 45.2 °F 46.4 °F 100% 30.33 in 10.0 mi West 3.5 mph - N/A   Unknown
1:15 AM 46.4 °F - 46.4 °F 100% 30.34 in 10.0 mi Calm Calm - N/A   Unknown
1:35 AM 44.6 °F - 44.6 °F 100% 30.34 in 10.0 mi Calm Calm - N/A   Unknown
1:55 AM 42.8 °F - 42.8 °F 100% 30.34 in 1.2 mi Calm Calm - N/A   Mist
2:15 AM 42.8 °F - 42.8 °F 100% 30.33 in 4.0 mi Calm Calm - N/A   Mist
2:35 AM 41.0 °F - 41.0 °F 100% 30.33 in 4.0 mi Calm Calm - N/A   Mist
2:55 AM 41.0 °F - 41.0 °F 100% 30.33 in 1.5 mi Calm Calm - N/A   Mist
3:15 AM 41.0 °F - 41.0 °F 100% 30.33 in 3.0 mi Calm Calm - N/A   Mist
3:35 AM 41.0 °F - 41.0 °F 100% 30.32 in 5.0 mi Calm Calm - N/A   Mist
3:55 AM 41.0 °F - 41.0 °F 100% 30.33 in 4.0 mi Calm Calm - N/A   Mist
4:15 AM 41.0 °F - 41.0 °F 100% 30.32 in 0.5 mi Calm Calm - N/A Fog Fog
4:35 AM 39.2 °F - 39.2 °F 100% 30.32 in 1.2 mi Calm Calm - N/A   Mist
4:55 AM 39.2 °F - 39.2 °F 100% 30.32 in 5.0 mi Calm Calm - N/A   Mist
5:15 AM 39.2 °F - 39.2 °F 100% 30.32 in 5.0 mi Calm Calm - N/A   Mist
5:35 AM 41.0 °F - 41.0 °F 100% 30.32 in 7.0 mi Calm Calm - N/A   Unknown
5:55 AM 41.0 °F - 39.2 °F 93% 30.31 in 7.0 mi Calm Calm - N/A   Unknown
6:15 AM 41.0 °F - 39.2 °F 93% 30.32 in 5.0 mi Calm Calm - N/A   Mist
7:15 AM 41.0 °F - 41.0 °F 100% 30.33 in 2.5 mi Calm Calm - N/A   Mist
7:55 AM 44.6 °F - 44.6 °F 100% 30.33 in 7.0 mi Calm Calm - N/A   Unknown
8:15 AM 46.4 °F - 44.6 °F 93% 30.34 in 10.0 mi Calm Calm - N/A   Unknown
8:35 AM 50.0 °F - 46.4 °F 87% 30.34 in 10.0 mi Calm Calm - N/A   Unknown
9:15 AM 53.6 °F - 48.2 °F 82% 30.33 in 10.0 mi South 4.6 mph - N/A   Unknown
9:35 AM 55.4 °F - 50.0 °F 82% 30.33 in 10.0 mi South 4.6 mph - N/A   Unknown
9:55 AM 59.0 °F - 50.0 °F 72% 30.33 in 10.0 mi South 5.8 mph - N/A   Unknown
10:15 AM 60.8 °F - 51.8 °F 72% 30.32 in 10.0 mi South 5.8 mph - N/A   Unknown
10:35 AM 64.4 °F - 53.6 °F 68% 30.32 in 10.0 mi SSW 9.2 mph 16.1 mph N/A   Unknown
10:55 AM 64.4 °F - 53.6 °F 68% 30.32 in - South 6.9 mph - N/A   Clear
11:15 AM 66.2 °F - 55.4 °F 68% 30.31 in 10.0 mi South 9.2 mph - N/A   Clear
11:35 AM 68.0 °F - 55.4 °F 64% 30.30 in 10.0 mi South 8.1 mph 19.6 mph N/A   Clear
11:55 AM 68.0 °F - 55.4 °F 64% 30.29 in 10.0 mi South 9.2 mph - N/A   Clear
12:15 PM 69.8 °F - 57.2 °F 64% 30.28 in 10.0 mi SSW 9.2 mph - N/A   Clear
12:35 PM 69.8 °F - 55.4 °F 60% 30.27 in 10.0 mi SSW 10.4 mph 17.3 mph N/A   Clear
12:55 PM 69.8 °F - 57.2 °F 64% 30.26 in 10.0 mi South 10.4 mph - N/A   Clear
1:15 PM 71.6 °F - 57.2 °F 60% 30.25 in - SW 10.4 mph 17.3 mph N/A   Clear
1:55 PM 71.6 °F - 55.4 °F 57% 30.24 in 10.0 mi SW 12.7 mph 17.3 mph N/A   Clear
2:15 PM 71.6 °F - 57.2 °F 60% 30.23 in 10.0 mi SSW 9.2 mph - N/A   Clear
3:15 PM 71.6 °F - 55.4 °F 57% 30.22 in 10.0 mi SSW 11.5 mph 16.1 mph N/A   Clear
3:35 PM 71.6 °F - 55.4 °F 57% 30.23 in 10.0 mi SSW 9.2 mph - N/A   Clear
3:55 PM 71.6 °F - 55.4 °F 57% 30.23 in 10.0 mi SSW 6.9 mph - N/A   Clear
4:15 PM 69.8 °F - 55.4 °F 60% 30.23 in 10.0 mi South 5.8 mph - N/A   Clear
4:35 PM 69.8 °F - 55.4 °F 60% 30.23 in - Calm Calm - N/A   Clear
4:55 PM 68.0 °F - 55.4 °F 64% 30.23 in 10.0 mi South 3.5 mph - N/A   Clear
5:15 PM 68.0 °F - 55.4 °F 64% 30.23 in 10.0 mi Calm Calm - N/A   Clear
5:35 PM 60.8 °F - 55.4 °F 82% 30.23 in 10.0 mi Calm Calm - N/A   Clear
5:55 PM 59.0 °F - 53.6 °F 82% 30.24 in 10.0 mi Calm Calm - N/A   Clear
6:15 PM 57.2 °F - 53.6 °F 88% 30.24 in 10.0 mi Calm Calm - N/A   Clear
6:35 PM 55.4 °F - 53.6 °F 94% 30.24 in 10.0 mi Calm Calm - N/A   Clear
6:55 PM 55.4 °F - 53.6 °F 94% 30.24 in 10.0 mi Calm Calm - N/A   Clear
7:15 PM 55.4 °F - 53.6 °F 94% 30.24 in - Calm Calm - N/A   Unknown
7:35 PM 57.2 °F - 53.6 °F 88% 30.24 in 10.0 mi Calm Calm - N/A   Unknown
7:55 PM 62.6 °F - 55.4 °F 77% 30.23 in 10.0 mi Calm Calm - N/A   Unknown
8:15 PM 62.6 °F - 55.4 °F 77% 30.24 in 10.0 mi South 3.5 mph - N/A   Unknown
8:35 PM 64.4 °F - 55.4 °F 73% 30.23 in 10.0 mi South 3.5 mph - N/A   Clear
8:55 PM 64.4 °F - 57.2 °F 77% 30.23 in - South 4.6 mph - N/A   Clear
9:15 PM 64.4 °F - 57.2 °F 77% 30.23 in 10.0 mi South 4.6 mph - N/A   Clear
9:35 PM 64.4 °F - 57.2 °F 77% 30.22 in 10.0 mi South 3.5 mph - N/A   Clear
9:55 PM 64.4 °F - 57.2 °F 77% 30.22 in - SSE 3.5 mph - N/A   Unknown
10:15 PM 64.4 °F - 57.2 °F 77% 30.22 in 10.0 mi South 3.5 mph - N/A   Clear
10:35 PM 64.4 °F - 57.2 °F 77% 30.20 in 10.0 mi South 5.8 mph - N/A   Clear
10:55 PM 66.2 °F - 59.0 °F 78% 30.20 in 10.0 mi South 8.1 mph - N/A   Clear
11:15 PM 64.4 °F - 59.0 °F 83% 30.18 in 10.0 mi SSE 5.8 mph - N/A   Clear
11:35 PM 64.4 °F - 59.0 °F 83% 30.19 in 10.0 mi South 6.9 mph - N/A   Clear
11:55 PM 64.4 °F - 59.0 °F 83% 30.18 in 10.0 mi SSE 4.6 mph - N/A   Clear